La Veta Pass, CO

7:10 PM MDT on October 18, 2017 (GMT -0600)
La Veta Pass

Weather History for KVTP - August, 2014

Change the Weather History Date:

Monday, August 4, 2014

  Actual Average (KTAD) Record (KTAD)
Temperature  
Mean Temperature 56 °F -  
Max Temperature 68 °F 86 °F 96 °F (1960)
Min Temperature 44 °F 57 °F 48 °F (1990)
Degree Days  
Heating Degree Days 9    
Growing Degree Days 6 (Base 50)    
Moisture  
Dew Point 45 °F    
Average Humidity 78    
Maximum Humidity 93    
Minimum Humidity 40    
Precipitation  
Precipitation 0.00 in - - ()
Sea Level Pressure  
Sea Level Pressure 30.52 in    
Wind  
Wind Speed 10 mph (SW)    
Max Wind Speed 17 mph    
Max Gust Speed 28 mph    
Visibility 10 miles    
Events Rain , Thunderstorm    
Averages and records for this station are not official NWS values.
T = Trace of Precipitation, MM = Missing Value Source: NWS Daily Summary

Daily Weather History Graph

Daily Weather History Graph

Search for Another Location

Airport or City:

Trip Planner

Search our weather history database for the weather conditions in past years. The results will help you decide how hot, cold, wet, or windy it might be!

Date:

Astronomy

Aug. 04, 2014 Rise Set
Actual Time 6:07 AM MDT 8:05 PM MDT
Civil Twilight 5:38 AM MDT 8:34 PM MDT
Nautical Twilight 5:03 AM MDT 9:09 PM MDT
Astronomical Twilight 4:26 AM MDT 9:46 PM MDT
Moon 2:20 PM MDT (8/4) 12:14 AM MDT (8/4)
Length of Visible Light 14h 55m
Length of Day
13h 58m
First Quarter, 58% of the Moon is Illuminated
Aug 4
First Quarter
Aug 10
Full
Aug 17
Last Quarter
Aug 25
New
Sep 2
First Quarter

Hourly Weather History & Observations

Time (MDT) Temp. Windchill Dew Point Humidity Pressure Visibility Wind Dir Wind Speed Gust Speed Precip Events Conditions
12:11 AM 50.0 °F - 42.8 °F 76% 30.54 in 10.0 mi WSW 11.5 mph 21.9 mph N/A   Clear
12:32 AM 50.0 °F - 42.8 °F 76% 30.54 in 10.0 mi SW 9.2 mph - N/A   Clear
12:52 AM 50.0 °F - 44.6 °F 82% 30.54 in 10.0 mi SW 12.7 mph 20.7 mph N/A   Clear
1:09 AM 50.0 °F - 42.8 °F 76% 30.54 in 10.0 mi SW 11.5 mph 27.6 mph N/A   Clear
1:27 AM 48.2 °F - 42.8 °F 82% 30.53 in 10.0 mi SW 10.4 mph 24.2 mph N/A   Clear
1:49 AM 48.2 °F - 42.8 °F 82% 30.53 in 10.0 mi SW 12.7 mph 24.2 mph N/A   Clear
2:12 AM 48.2 °F - 42.8 °F 82% 30.52 in 10.0 mi SW 13.8 mph 27.6 mph N/A   Clear
2:29 AM 46.4 °F 40.1 °F 44.6 °F 93% 30.52 in 10.0 mi SW 15.0 mph 19.6 mph N/A   Clear
2:51 AM 46.4 °F 40.7 °F 44.6 °F 93% 30.52 in 10.0 mi SW 12.7 mph 18.4 mph N/A   Clear
3:08 AM 46.4 °F 40.1 °F 44.6 °F 93% 30.52 in 10.0 mi SW 15.0 mph 23.0 mph N/A   Clear
3:32 AM 46.4 °F 40.1 °F 44.6 °F 93% 30.52 in 10.0 mi SW 15.0 mph 23.0 mph N/A   Clear
3:53 AM 46.4 °F 40.7 °F 44.6 °F 93% 30.52 in 10.0 mi SW 12.7 mph 21.9 mph N/A   Clear
4:10 AM 46.4 °F 40.4 °F 44.6 °F 93% 30.51 in 10.0 mi SW 13.8 mph 21.9 mph N/A   Clear
4:32 AM 46.4 °F 40.1 °F 44.6 °F 93% 30.51 in 10.0 mi SW 15.0 mph 20.7 mph N/A   Clear
4:53 AM 46.4 °F 41.1 °F 44.6 °F 93% 30.51 in 10.0 mi SW 11.5 mph 23.0 mph N/A   Clear
5:11 AM 46.4 °F 40.7 °F 44.6 °F 93% 30.50 in 10.0 mi SW 12.7 mph 20.7 mph N/A   Clear
5:32 AM 46.4 °F 40.4 °F 44.6 °F 93% 30.51 in 10.0 mi SW 13.8 mph 25.3 mph N/A   Clear
5:53 AM 46.4 °F 40.4 °F 44.6 °F 93% 30.51 in 10.0 mi SW 13.8 mph 21.9 mph N/A   Clear
6:11 AM 46.4 °F 39.5 °F 44.6 °F 93% 30.50 in 10.0 mi SW 17.3 mph 26.5 mph N/A   Scattered Clouds
6:33 AM 46.4 °F 39.8 °F 44.6 °F 93% 30.50 in 10.0 mi SW 16.1 mph 23.0 mph N/A   Clear
6:50 AM 48.2 °F - 44.6 °F 87% 30.51 in 10.0 mi SW 16.1 mph 24.2 mph N/A   Clear
7:13 AM 48.2 °F - 44.6 °F 87% 30.51 in 10.0 mi SW 17.3 mph 25.3 mph N/A   Clear
7:32 AM 50.0 °F - 44.6 °F 82% 30.52 in 10.0 mi SW 16.1 mph 26.5 mph N/A   Clear
7:48 AM 50.0 °F - 44.6 °F 82% 30.52 in 10.0 mi SW 10.4 mph 23.0 mph N/A   Clear
8:13 AM 51.8 °F - 46.4 °F 82% 30.52 in 10.0 mi SW 12.7 mph 21.9 mph N/A   Scattered Clouds
8:30 AM 53.6 °F - 48.2 °F 82% 30.53 in 10.0 mi WSW 9.2 mph 20.7 mph N/A   Scattered Clouds
8:47 AM 53.6 °F - 46.4 °F 77% 30.54 in 10.0 mi SW 11.5 mph 23.0 mph N/A   Scattered Clouds
9:12 AM 53.6 °F - 46.4 °F 77% 30.52 in 10.0 mi WSW 10.4 mph 18.4 mph N/A   Mostly Cloudy
9:33 AM 55.4 °F - 46.4 °F 72% 30.52 in 10.0 mi SW 8.1 mph 21.9 mph N/A   Scattered Clouds
9:52 AM 57.2 °F - 48.2 °F 72% 30.53 in 10.0 mi SW 9.2 mph 17.3 mph N/A   Scattered Clouds
10:12 AM 59.0 °F - 50.0 °F 72% 30.54 in 10.0 mi WSW 8.1 mph - N/A   Clear
10:32 AM 59.0 °F - 48.2 °F 67% 30.54 in 10.0 mi WSW 8.1 mph - N/A   Clear
10:53 AM 60.8 °F - 48.2 °F 63% 30.54 in 10.0 mi WSW 8.1 mph - N/A   Clear
11:08 AM 62.6 °F - 48.2 °F 59% 30.54 in 10.0 mi WSW 9.2 mph - N/A   Clear
11:33 AM 62.6 °F - 50.0 °F 63% 30.54 in 10.0 mi SW 5.8 mph 17.3 mph N/A   Clear
11:40 AM 62.6 °F - 48.2 °F 59% 30.54 in 10.0 mi WSW 5.8 mph 17.3 mph N/A   Scattered Clouds
12:12 PM 62.6 °F - 46.4 °F 55% 30.53 in 10.0 mi SW 10.4 mph 19.6 mph N/A   Clear
12:33 PM 64.4 °F - 44.6 °F 49% 30.52 in 10.0 mi SW 9.2 mph - N/A Thunderstorm Clear
12:53 PM 68.0 °F - 44.6 °F 43% 30.52 in 10.0 mi WSW 6.9 mph - N/A Thunderstorm Clear
1:13 PM 66.2 °F - 44.6 °F 46% 30.52 in 10.0 mi WSW 4.6 mph - N/A   Clear
1:30 PM 68.0 °F - 42.8 °F 40% 30.51 in 10.0 mi SW 5.8 mph - N/A Thunderstorm Clear
1:49 PM 68.0 °F - 42.8 °F 40% 30.50 in 10.0 mi WSW 5.8 mph - N/A Thunderstorm Thunderstorm
2:07 PM 68.0 °F - 42.8 °F 40% 30.50 in 10.0 mi SW 3.5 mph - N/A Thunderstorm Thunderstorm
2:33 PM 68.0 °F - 44.6 °F 43% 30.50 in 10.0 mi Calm Calm - N/A Thunderstorm Thunderstorm
2:51 PM 62.6 °F - 44.6 °F 52% 30.49 in 10.0 mi WSW 3.5 mph - N/A Thunderstorm Thunderstorm
3:12 PM 62.6 °F - 44.6 °F 52% 30.50 in 10.0 mi West 3.5 mph - N/A Thunderstorm Thunderstorm
3:33 PM 60.8 °F - 44.6 °F 55% 30.51 in 10.0 mi SSW 10.4 mph 16.1 mph N/A Thunderstorm Thunderstorm
3:47 PM 53.6 °F - 44.6 °F 72% 30.51 in 10.0 mi SSE 13.8 mph 20.7 mph N/A Thunderstorm Thunderstorm
4:13 PM 51.8 °F - 42.8 °F 71% 30.52 in 10.0 mi NE 5.8 mph - N/A Thunderstorm Thunderstorm
4:28 PM 51.8 °F - 42.8 °F 71% 30.54 in 1.0 mi ENE 3.5 mph - N/A Rain , Thunderstorm Heavy Thunderstorms and Rain
4:53 PM 44.6 °F 40.2 °F 42.8 °F 93% 30.53 in 1.0 mi South 8.1 mph - N/A Thunderstorm Unknown
5:13 PM 46.4 °F 41.1 °F 42.8 °F 87% 30.52 in 10.0 mi SSE 11.5 mph - N/A Rain , Thunderstorm Light Thunderstorms and Rain
5:23 PM 46.4 °F 41.9 °F 42.8 °F 87% 30.52 in 7.0 mi South 9.2 mph - N/A Rain , Thunderstorm Light Thunderstorms and Rain
5:50 PM 46.4 °F 45.2 °F 44.6 °F 93% 30.52 in 10.0 mi South 3.5 mph - N/A   Light Drizzle
6:13 PM 46.4 °F - 44.6 °F 93% 30.52 in 10.0 mi Calm Calm - N/A Thunderstorm Thunderstorm
6:33 PM 48.2 °F - 44.6 °F 87% 30.52 in 10.0 mi WNW 4.6 mph - N/A Thunderstorm Thunderstorm
6:53 PM 48.2 °F - 42.8 °F 82% 30.52 in 10.0 mi WNW 4.6 mph - N/A   Overcast
7:10 PM 50.0 °F - 42.8 °F 76% 30.51 in 10.0 mi WNW 4.6 mph - N/A Thunderstorm Overcast
7:31 PM 50.0 °F - 44.6 °F 82% 30.51 in 10.0 mi NW 4.6 mph - N/A   Overcast
7:50 PM 48.2 °F - 44.6 °F 87% 30.52 in 10.0 mi West 3.5 mph - N/A Rain Light Rain
8:13 PM 46.4 °F 42.9 °F 44.6 °F 93% 30.52 in 10.0 mi West 6.9 mph - N/A   Light Drizzle
8:32 PM 48.2 °F - 44.6 °F 87% 30.51 in 10.0 mi WSW 5.8 mph - N/A   Overcast
8:53 PM 46.4 °F 42.4 °F 44.6 °F 93% 30.51 in 10.0 mi West 8.1 mph - N/A   Overcast
9:33 PM 46.4 °F 42.9 °F 44.6 °F 93% 30.52 in 10.0 mi WSW 6.9 mph - N/A Rain Light Rain
9:53 PM 46.4 °F 43.5 °F 44.6 °F 93% 30.52 in 10.0 mi SW 5.8 mph - N/A Thunderstorm Unknown
10:10 PM 46.4 °F 42.4 °F 42.8 °F 87% 30.52 in 10.0 mi SW 8.1 mph 16.1 mph N/A Rain Light Rain
10:33 PM 46.4 °F 41.5 °F 44.6 °F 93% 30.52 in 10.0 mi SW 10.4 mph 17.3 mph N/A Rain Light Rain
10:53 PM 46.4 °F 41.1 °F 44.6 °F 93% 30.52 in 7.0 mi SW 11.5 mph - N/A Rain Rain
11:13 PM 46.4 °F 45.2 °F 44.6 °F 93% 30.52 in 10.0 mi SSW 3.5 mph - N/A Rain Light Rain
11:32 PM 46.4 °F 44.3 °F 44.6 °F 93% 30.51 in 10.0 mi WSW 4.6 mph - N/A   Light Drizzle
11:51 PM 46.4 °F 44.3 °F 44.6 °F 93% 30.51 in 10.0 mi WSW 4.6 mph - N/A   Mostly Cloudy